Change the Weather History Date:

Tuesday, August 21, 2012

  Actual Average Record
Temperature  
Mean Temperature 84 °F -  
Max Temperature 99 °F 96 °F 106 °F (1986)
Min Temperature 72 °F 68 °F 60 °F (1940)
Cooling Degree Days 19    
Growing Degree Days 34 (Base 50)    
Moisture  
Dew Point 54 °F    
Average Humidity 38    
Maximum Humidity 59    
Minimum Humidity 22    
Precipitation  
Precipitation 0.00 in - - ()
Sea Level Pressure  
Sea Level Pressure 29.83 in    
Wind  
Wind Speed 8 mph (ESE)    
Max Wind Speed 22 mph    
Max Gust Speed 29 mph    
Visibility 10 miles    
Events      
Averages and records for this station are not official NWS values.
T = Trace of Precipitation, MM = Missing Value Source: NWS Daily Summary

Daily Weather History Graph

Daily Weather History Graph

Search for Another Location

Airport or City:

Trip Planner

Search our weather history database for the weather conditions in past years. The results will help you decide how hot, cold, wet, or windy it might be!

Date:

Astronomy

Aug. 21, 2012 Rise Set
Actual Time 7:21 AM CDT 8:29 PM CDT
Civil Twilight 6:56 AM CDT 8:54 PM CDT
Nautical Twilight 6:26 AM CDT 9:24 PM CDT
Astronomical Twilight 5:55 AM CDT 9:55 PM CDT
Moon 11:33 AM CDT 10:54 PM CDT
Length of Visible Light 13h 57m
Length of Day
13h 07m
Waxing Crescent, 19% of the Moon is Illuminated
Aug 21
Waxing Crescent
Aug 24
First Quarter
Aug 31
Full
Sep 8
Last Quarter
Sep 15
New

Hourly Weather History & Observations

Time (CDT) Temp. Heat Index Dew Point Humidity Pressure Visibility Wind Dir Wind Speed Gust Speed Precip Events Conditions
12:53 AM 80.1 °F - 46.9 °F 31% 29.83 in 10.0 mi SSE 11.5 mph - N/A   Clear
1:53 AM 80.1 °F - 48.9 °F 34% 29.83 in 10.0 mi South 6.9 mph - N/A   Clear
2:53 AM 78.1 °F - 51.1 °F 39% 29.83 in 10.0 mi South 3.5 mph - N/A   Clear
3:53 AM 75.0 °F - 52.0 °F 44% 29.82 in 10.0 mi ESE 5.8 mph - N/A   Clear
4:53 AM 73.9 °F - 52.0 °F 46% 29.82 in 10.0 mi ESE 5.8 mph - N/A   Clear
5:53 AM 75.0 °F - 51.1 °F 43% 29.82 in 10.0 mi East 3.5 mph - N/A   Clear
6:53 AM 73.0 °F - 52.0 °F 48% 29.83 in 10.0 mi East 5.8 mph - N/A   Clear
7:53 AM 72.0 °F - 55.9 °F 57% 29.84 in 10.0 mi East 8.1 mph - N/A   Clear
8:53 AM 73.9 °F - 59.0 °F 59% 29.85 in 10.0 mi ESE 6.9 mph - N/A   Clear
9:53 AM 80.1 °F 80.4 °F 57.0 °F 45% 29.86 in 10.0 mi ESE 9.2 mph - N/A   Clear
10:53 AM 82.0 °F 81.6 °F 55.9 °F 41% 29.86 in 10.0 mi SE 6.9 mph - N/A   Clear
11:53 AM 86.0 °F 84.5 °F 55.0 °F 35% 29.86 in 10.0 mi Calm Calm - N/A   Clear
12:53 PM 93.0 °F 90.6 °F 53.1 °F 26% 29.84 in 10.0 mi Variable 4.6 mph - N/A   Clear
1:53 PM 93.0 °F - 52.0 °F 25% 29.83 in 10.0 mi Calm Calm - N/A   Clear
2:53 PM 95.0 °F - 52.0 °F 23% 29.81 in 10.0 mi ESE 6.9 mph - N/A   Clear
3:53 PM 96.1 °F - 52.0 °F 22% 29.79 in 10.0 mi NE 9.2 mph - N/A   Scattered Clouds
4:53 PM 96.1 °F - 52.0 °F 22% 29.78 in 10.0 mi Variable 3.5 mph - N/A   Clear
5:53 PM 96.1 °F - 52.0 °F 22% 29.77 in 10.0 mi SE 6.9 mph - N/A   Clear
6:53 PM 93.0 °F 90.8 °F 54.0 °F 27% 29.78 in 10.0 mi East 21.9 mph 28.8 mph N/A   Scattered Clouds
7:53 PM 88.0 °F 86.9 °F 57.9 °F 36% 29.81 in 10.0 mi East 19.6 mph 25.3 mph N/A   Clear
8:53 PM 84.0 °F 83.5 °F 57.9 °F 41% 29.84 in 10.0 mi East 15.0 mph 23.0 mph N/A   Clear
9:53 PM 82.0 °F 82.0 °F 57.9 °F 44% 29.86 in 10.0 mi East 13.8 mph - N/A   Clear
10:53 PM 80.1 °F 80.7 °F 59.0 °F 48% 29.88 in 10.0 mi East 12.7 mph 19.6 mph N/A   Clear
11:53 PM 78.1 °F - 60.1 °F 54% 29.90 in 10.0 mi ENE 8.1 mph - N/A   Scattered Clouds